Regional Weather Roundup
Issued by NWS Green Bay, WI

Home | Current Version | Previous Version | Graphics & Text | Print | Product List | Glossary Off
Versions: 1 2 3 4 5 6 7 8 9 10 11 12 13 14 15 16 17 18 19 20 21 22 23 24 25 26 27 28 29 30 31 32 33 34 35 36 37 38 39 40 41 42 43 44 45 46 47 48 49 50

000
ASUS43 KGRB 281300
RWRGRB

NORTH-CENTRAL AND NORTHEAST WISCONSIN REGIONAL WEATHER ROUNDUP
NATIONAL WEATHER SERVICE GREEN BAY WI
800 AM CDT TUE MAR 28 2017

WIZ005-009-010>012-018-019-281400-
NORTH CENTRAL WISCONSIN

CITY           SKY/WX    TMP DP  RH WIND       PRES   REMARKS
IRONWOOD       SUNNY     27  26  96 E3        30.14S
MANITOWISH WTR NOT AVBL
ARBOR VITAE    NOT AVBL
EAGLE RIVER    NOT AVBL
LAND O LAKES   NOT AVBL
RHINELANDER    SUNNY     31  28  89 CALM      30.12R
PHILLIPS       NOT AVBL
ANTIGO         NOT AVBL
TOMAHAWK       NOT AVBL
MERRILL        NOT AVBL
$$

WIZ013-073-281400-
NORTHEAST WISCONSIN

CITY           SKY/WX    TMP DP  RH WIND       PRES   REMARKS
IRON MOUNTAIN  SUNNY     29  26  89 NW3       30.10R
MARINETTE        N/A    N/A N/A N/A MISG        N/A
$$

WIZ017-030-035>037-045-281400-
CENTRAL WISCONSIN

CITY           SKY/WX    TMP DP  RH WIND       PRES   REMARKS
MEDFORD        NOT AVBL
WAUSAU         SUNNY     30  30 100 CALM      30.12R
MOSINEE        CLOUDY    34  34 100 N3          N/A
MARSHFIELD     MOSUNNY   31  30  96 NE3       30.10S FOG
WISC RAPIDS    CLOUDY    41  38  89 CALM      30.13R
STEVENS POINT  NOT AVBL
WAUPACA        NOT AVBL
SHAWANO        NOT AVBL
CLINTONVILLE   NOT AVBL
WAUTOMA        CLOUDY    41  37  86 CALM      30.13R
$$

WIZ038-039-048-051-281400-
FOX VALLEY

CITY           SKY/WX    TMP DP  RH WIND       PRES   REMARKS
NWS GREEN BAY  SUNNY     36  36 100 N5        30.12R
APPLETON       MOSUNNY   36  36 100 N7        30.10R
OSHKOSH        SUNNY     38  35  89 N3        30.12R
FOND DU LAC    SUNNY     38  34  85 N3        30.12R
$$

WIZ022-050-052-281400-
EAST CENTRAL WISCONSIN

CITY           SKY/WX    TMP DP  RH WIND       PRES   REMARKS
EPHRAIM        NOT AVBL
WASHINGTON ISL NOT AVBL
STURGEON BAY   SUNNY     34  33  96 N3        30.11R
MANITOWOC      NOT AVBL
SHEBOYGAN      SUNNY     39  35  86 N6        30.11R
$$

LMZ563-521-522-541>543-281400-
LAKESHORE

STATION/POSITION TIME  TEMP    WIND        PRES    VSBY  WAVE
                       AIR SEA DIR/SP/G                  HT/PER
                 (UTC) (F)     (DEG/KT/KT) (MB)    (MI)  (FT/S)
SHEBOYGAN LKSHOR 1200   39     350/ 11/ 12 1019.2R
KEWAUNEE LKSHORE 1230   36     350/  4/  7 1019.1R
NORTHPORT PIER   1240   31      60/  5/ 10 1020.3R
CHAMBERS ISLAND  1240   30      10/ 12/ 14 1019.6R
MENOMINEE LKSHOR 1230   33     340/  8/  9 1018.9R
$$




USA.gov is the U.S. government's official web portal to all federal, state and local government web resources and services.